Flag for Canada Weather past 2 weeks in Halifax, Nova Scotia, Canada

Now
54 °F

Light rain. Fog.


Feels Like: 49 °F
Forecast: 44 / 52 °F
Wind: 17 mph from South

Location: Halifax International Airport

Current Time: Dec 25, 2014 at 6:59:29 AM

Latest Report: Dec 25, 2014 at 6:00 AM


Visibility: 2 mi

Pressure: 29.74 "Hg

Humidity: 100%

Dew point: 54 °F

Location of HalifaxLocation

Historic Weather in Halifax — Graph

°F

Halifax temperature yesterday

Maximum temperature yesterday: 50 °F (at 8:00 PM)
Minimum temperature yesterday: 32 °F (at 12:00 AM)
Average temperature yesterday: 41 °F

Past Weeks' High & Low Weather Summary

 TemperatureHumidityPressure
High54 °F (Dec 25, 5:00 AM)100% (Dec 10, 6:00 AM)30.48 "Hg (Dec 10, 6:00 AM)
Low25 °F (Dec 23, 6:00 AM)64% (Dec 23, 12:00 PM)29.36 "Hg (Dec 18, 3:00 PM)
Average36 °F92%29.94 "Hg
* Reported Dec 10 5:00 AM — Dec 25 5:00 AM, Halifax, Weather by CustomWeather, © 2014

Note: Actual official high and low records may vary slightly from our data, if they occured in-between our weather recording intervals... More about our weather records

Advertising

Halifax weather history for previous 24 hours

 ConditionsComfort  
Time TempWeatherWind HumidityBarometerVisibility
5:00 AM
Dec 25
54 °FHeavy rain. Fog.20 mph94%29.76 "Hg2 mi
4:00 AM52 °FLight rain. Fog.17 mph100%29.79 "Hg1 mi
3:00 AM52 °FRain. Fog.18 mph100%29.83 "Hg1 mi
2:00 AM50 °FLight rain. Fog.16 mph100%29.85 "Hg1 mi
1:00 AM50 °FLight rain. Fog.17 mph100%29.88 "Hg1 mi
12:00 AM52 °FLight rain. Fog.18 mph100%29.92 "Hg1 mi
11:00 PM
Dec 24
50 °FLight rain. Fog.16 mph100%29.95 "Hg1 mi
10:00 PM50 °FLow clouds.18 mph100%29.99 "Hg1 mi
9:51 PM50 °FRain. Fog.16 mph100%29.99 "Hg2 mi
9:00 PM50 °FDrizzle. Fog.15 mph94%30.02 "Hg1 mi
8:00 PM50 °FSprinkles. Fog.16 mph100%30.04 "Hg1 mi
7:00 PM48 °FDrizzle. Fog.13 mph100%30.07 "Hg1 mi
6:00 PM48 °FDrizzle. Fog.14 mph100%30.08 "Hg1 mi
5:00 PM46 °FDrizzle. Fog.13 mph100%30.09 "Hg1 mi
4:50 PM46 °FDrizzle. Fog.14 mph100%30.09 "Hg1 mi
4:00 PM46 °FDrizzle. Fog.12 mph93%30.11 "Hg1 mi
3:00 PM45 °FQuite cool.16 mph100%30.11 "Hg1 mi
2:00 PM45 °FDrizzle. Fog.15 mph100%30.13 "Hg1 mi
1:00 PM43 °FDrizzle. Fog.16 mph100%30.14 "Hg1 mi
12:00 PM41 °FDrizzle. Fog.16 mph100%30.16 "Hg1 mi
11:00 AM37 °FDrizzle. Fog.13 mph100%30.23 "Hg1 mi
10:00 AM36 °FDrizzle. Fog.9 mph93%30.27 "Hg1 mi
9:00 AM34 °FDrizzle. Fog.9 mph100%30.28 "Hg1 mi
8:00 AM34 °FLight rain. Fog.7 mph93%30.27 "Hg1 mi
7:00 AM34 °FLight rain. Fog.10 mph93%30.26 "Hg1 mi
6:00 AM32 °FLight rain. Ice fog.8 mph100%30.28 "Hg15 mi
Weather by CustomWeather, © 2014

See weather overviewHow to use our weather pages